Find Starlink 31706

NORAD ID: 59437 Int'l Des: 2024-065 Owner: SPXS Country: US Constellation: starlink operational
LEOCIRCULAR

Live Position

Loading 3D Globe...

About Starlink 31706

Description loading...

Upcoming Passes

Passes for default location (London). Set your location on the main map for personalized predictions.

Altitude History

Loading altitude history...

Two-Line Element Set

1 59437U 24065S 26126.10564800 -.00005632 00000-0 -17807-3 0 9990
2 59437 53.1620 16.8656 0001001 75.5268 284.5844 15.30216714117693
Epoch: May 6, 2026 • Age: 19 hours

Current Status

Altitude 480.8 km
Velocity 7.63 km/s
Sub-Earth Point 51.98°N, 70.72°W
Launch Date Apr 7, 2024
Age 2 years
Type internet

Technical Details

Classification Payload
Mass 730.00 kg
Dry Mass 700.00 kg
Total Mass 730.00 kg
Length 0.30 m
Diameter 4.10 m
Span 29.00 m
Shape Box + pan
Manufacturer SPXS
Bus Type Starlink V2M
Phase Status In Orbit
Owner/State SPXS/US

Most Searched